Preview of NWS' New Version of Forecast
This preview is not operational and should not be used for support decisions.
Latest weather observations around

Gainesville, Gainesville Regional Airport (KGNV)

Using English Units (Switch to International System of Units)
Date/ Time (EDT) Wind (mph) Vis. (mi) Weather Sky Cond. Temp (°F) Rel. Humidity Wind Chill (°F) Heat Index (°F) Pressure Precip. (in)
Air Dwpt 6 hour Altimeter (inHg) Sea level (inHg) 1 hr 3 hr 6 hr
Max Min
Notice The following observation data may not be complete
Jul 16 15:15   10 Thunderstorms BKN048 BKN060 BKN070          %              
Jul 16 15:00 SW 8 10 Cloudy BKN048 OVC065 90 74     59%   99 30.14        
Jul 16 14:53 SW 7 10 Thunderstorms BKN050 OVC065 91 74     57%   101 30.14 30.12      
Jul 16 14:45 Calm 10 Thunderstorms BKN050 OVC060 91 74     57%   101 30.14        
Jul 16 13:53 3 10 Mostly Cloudy BKN043 91 74     57%   101 30.15 30.14      
Jul 16 12:53 ENE 3 10 Clear CLR 92 75     58%   103 30.16 30.15      
Jul 16 11:53 S 5 10 Clear CLR 90 74     59%   99 30.18 30.16      
Jul 16 10:53 WSW 5 10 Clear CLR 87 74     65%   95 30.18 30.17      
Jul 16 09:53 W 8 10 Clear CLR 86 74     67%   94 30.18 30.16      
Jul 16 08:53 Calm 10 Clear CLR 80 76     87%   85 30.17 30.16      
Jul 16 07:53 Calm 10 Clear CLR 74 73     97%   76 30.16 30.15      
Jul 16 06:53 Calm 10 Clear CLR 73 72     96%   75 30.14 30.13      
Jul 16 05:53 Calm 10 Clear CLR 72 72     100%   74 30.13 30.12      
Jul 16 04:53 Calm 10 Clear CLR 73 72     96%   75 30.12 30.11      
Jul 16 03:53 Calm 10 Clear CLR 74 73     97%   76 30.12 30.1      
Jul 16 02:53 Calm 10 Clear CLR 75 73     94%   77 30.12 30.11      
Jul 16 01:53 W 3 10 Clear CLR 75 73     94%   77 30.14 30.13     0
Jul 16 00:53 Calm 10 Clear   75 74     96%   77 30.15 30.14      
Jul 15 23:53 Calm 10 Clear CLR 76 74     94%   78 30.15 30.13      
Jul 15 22:53 W 3 10 Mostly Clear FEW075 76 74     94%   78 30.14 30.13   0  
Jul 15 21:53 Calm 10 Clear CLR 77 75     94%   79 30.13 30.12 0    
Jul 15 20:53 Calm 10 Light Rain FEW060 SCT095 BKN110 79 74     85%   83 30.13 30.12 0    
Jul 15 19:53 ESE 5 10 Mostly Clear FEW039 FEW070 FEW100 79 74     85%   83 30.12 30.11 0   0
Jul 15 18:53 SE 8 10 Mostly Cloudy BKN110 80 72     76%   84 30.1 30.09 0    
Jul 15 18:50 SE 9 10 Mostly Cloudy BKN110 81 73     79%   85 30.1   0    
Jul 15 18:42 SE 7 10 Light Rain FEW090 BKN110 79 73     82%   82 30.11   0    
Jul 15 18:21   10 Thunderstorms and Rain FEW065 BKN085 OVC120 79 69     72%   80 30.12   0    
Jul 15 17:53 N 6 10 Thunderstorms FEW070 SCT085 BKN110 87 74     65%   95 30.11 30.1      
Jul 15 17:00 WSW 8 10 Clear CLR 92 74     56%   102 30.09        
Jul 15 16:53 W 8 10 Clear CLR 92 72     52%   100 30.09 30.08      
Jul 15 15:53 WSW 7 10 Clear CLR 92 73     54%   101 30.11 30.09      
Jul 15 14:53 SE 8 10 Cloudy OVC050 90 72     56%   97 30.12 30.11      
Jul 15 13:53 3 10 Partly Cloudy SCT065 93 71     49%   100 30.13 30.12      
Jul 15 12:53 Calm 10 Clear CLR 92 72     52%   100 30.15 30.14      
Jul 15 11:53 Calm 10 Clear CLR 89 70     53%   94 30.16 30.14      
Jul 15 10:53 W 5 10 Clear CLR 89 70     53%   94 30.16 30.15      
Jul 15 09:53 SW 6 10 Clear CLR 86 68     55%   89 30.16 30.14      
Jul 15 08:53 WSW 3 10 Clear CLR 83 74     74%   89 30.15 30.14      
Jul 15 07:53 Calm 10 Clear CLR 77 74     90%   79 30.14 30.13      
Jul 15 06:53 Calm 9 Clear CLR 73 72     96%   75 30.13 30.12      
Jul 15 06:41 Calm 10 Clear CLR 73 72     96%   75 30.13        
Jul 15 05:53 SSW 5 10 Clear CLR 75 72     90%   76 30.12 30.11      
Jul 15 04:53 Calm 10 Clear CLR 74 73     97%   76 30.11 30.1      
Jul 15 03:53 Calm 10 Clear CLR 75 73     94%   77 30.11 30.1      
Jul 15 02:53 Calm 10 Clear CLR 76 73     91%   77 30.13 30.11      
Jul 15 01:53 Calm 10 Clear CLR 75 74     96%   77 30.14 30.12      
Jul 15 00:53 Calm 10 Clear CLR 76 74     94%   78 30.15 30.14      
Jul 14 23:53 Calm 10 Clear CLR 77 73     88%   79 30.15 30.14      
Jul 14 22:53 Calm 10 Clear CLR 79 73     82%   82 30.15 30.13      
Jul 14 21:53 Calm 10 Clear CLR 83 72     70%   88 30.14 30.12      
Jul 14 20:53 Calm 10 Clear CLR 83 73     72%   89 30.12 30.11      
Jul 14 19:53 N 7 10 Mostly Cloudy FEW065 BKN080 BKN110 89 71     55%   95 30.12 30.11      
Jul 14 18:53 WSW 5 10 Clear CLR 91 71     52%   98 30.1 30.09      
Jul 14 17:53 SSE 3 10 Clear CLR 92 70     49%   98 30.1 30.09      
Jul 14 16:53 S 6 10 Partly Cloudy FEW055 SCT090 91 72     54%   99 30.11 30.1      
Jul 14 15:53 3 10 Clear CLR 93 72     51%   101 30.13 30.12      
Jul 14 14:53 3 10 Clear CLR 93 72     51%   101 30.15 30.14      
Jul 14 13:53 SE 5 10 Clear CLR 91 72     54%   99 30.18 30.16      
Jul 14 12:53 SSE 6 10 Clear CLR 91 72     54%   99 30.19 30.18      
Jul 14 11:53 Calm 10 Clear CLR 89 72     57%   96 30.2 30.19      
Jul 14 10:53 WSW 6 10 Clear CLR 86 74     67%   94 30.2 30.19      
Jul 14 09:53 S 5 10 Clear CLR 84 77     80%   94 30.19 30.18      
Jul 14 08:53 S 6 10 Clear CLR 81 78     91%   89 30.18 30.17      
Jul 14 07:53 Calm 9 Clear CLR 77 76     96%   79 30.18 30.16      
Jul 14 06:53 Calm 9 Clear CLR 74 74     100%   76 30.16 30.14      
Jul 14 05:53 Calm 10 Clear CLR 74 74     100%   76 30.14 30.13      
Jul 14 04:53 Calm 10 Clear CLR 74 74     100%   76 30.14 30.13      
Jul 14 03:53 Calm 10 Clear CLR 75 74     96%   77 30.14 30.12      
Jul 14 02:53 Calm 10 Clear CLR 75 73     94%   77 30.14 30.13      
Jul 14 01:53 Calm 10 Clear CLR 76 74     94%   78 30.16 30.14      
Jul 14 00:53 Calm 10 Clear CLR 77 74     90%   79 30.17 30.16      
Jul 13 23:53 Calm 10 Clear CLR 78 75     90%   80 30.16 30.15      
Jul 13 22:53 Calm 10 Clear CLR 80 74     82%   85 30.16 30.15      
Jul 13 21:53 SSW 3 10 Partly Cloudy SCT055 84 74     72%   91 30.15 30.14      
Jul 13 20:53 SSW 3 10 Clear CLR 85 73     68%   92 30.13 30.12      
Jul 13 19:53 S 3 10 Clear CLR 87 73     63%   95 30.11 30.11      
Jul 13 18:53 S 8 10 Mostly Clear FEW048 90 71     54%   96 30.09 30.09      
Jul 13 17:53 S 6 10 Partly Cloudy SCT050 89 72     57%   96 30.09 30.08      
Jul 13 16:53 S 7 10 Clear CLR 91 72     54%   99 30.09 30.08      
Jul 13 15:53 WSW 7 10 Clear CLR 91 72     54%   99 30.11 30.1      
Jul 13 14:53 SW 9 10 Clear CLR 91 73     56%   100 30.13 30.12      
Jul 13 13:53 S 7 10 Clear CLR 89 74     61%   98 30.15 30.14      
Jul 13 12:53 SSE 5 10 Clear CLR 87 76     70%   98 30.16 30.15      
Jul 13 11:53 SE 8 10 Mostly Clear FEW028 86 75     70%   95 30.16 30.15      
Jul 13 10:53 S 5 10 Clear CLR 83 74     74%   89 30.17 30.16      
Jul 13 09:53 SSE 5 10 Clear CLR 79 73     82%   82 30.16 30.15      
Jul 13 08:53 S 5 10 Clear CLR 77 72     84%   78 30.13 30.12      
Jul 13 07:53 SE 3 10 Clear CLR 73 72     96%   75 30.11 30.1      
Jul 13 06:53 E 3 10 Clear CLR 72 71     97%   73 30.09 30.08      
Jul 13 06:40 Calm 10 Clear CLR 72 71     97%   73 30.09        
Jul 13 05:53 Calm 10 Clear CLR 72 72     100%   74 30.07 30.06      
Jul 13 03:53 Calm 10 Clear CLR 72 71     97%   73 30.03 30.02      
Jul 13 02:53 Calm 10 Clear CLR 72 71     97%   73 30.03 30.02      
Jul 13 01:53 Calm 10 Clear CLR 71 71     100%   73 30.04 30.03     0
Jul 13 00:53 Calm 10 Clear CLR 72 71     97%   73 30.06 30.05      
Jul 12 23:53 S 3 10 Clear CLR 73 71     94%   74 30.09 30.08      
Jul 12 22:53 S 5 10 Mostly Clear FEW110 73 72     96%   75 30.1 30.09   0  
Jul 12 22:20 SSW 8 10 Partly Cloudy SCT010 73 72     96%   75 30.1        
Jul 12 21:53 SSW 8 10 Cloudy BKN010 OVC020 74 73     97%   76 30.1 30.09 0    
Jul 12 21:49 SSW 7 10 Cloudy BKN010 OVC020 73 73     100%   75 30.09   0    
Jul 12 21:32 S 3 10 Cloudy SCT009 OVC019 74 73     97%   76 30.09   0    
Jul 12 21:07 S 6 10 Light Rain BKN009 OVC013 74 73     97%   76 30.09   0    
Jul 12 20:53 SSE 5 9 Light Rain BKN011 BKN017 OVC100 74 73     97%   76 30.08 30.07 0    
Jul 12 19:53 W 3 10 Mostly Cloudy FEW013 SCT020 BKN043 75 74     96%   77 30.07 30.06 0   0
Jul 12 19:13 W 5 10 Cloudy BKN019 BKN026 OVC070 75 73     94%   77 30.07   0    
Jul 12 19:06 W 5 10 Cloudy FEW019 SCT028 OVC070 76 73     91%   77 30.06   0    
Jul 12 18:53 WSW 6 10 Cloudy BKN027 BKN032 OVC065 76 73     91%   77 30.05 30.04      
Jul 12 18:44 Calm 10 Mostly Cloudy BKN029 76 73     91%   77 30.05        
Jul 12 17:53 WSW 7 10 Clear CLR 78 74     87%   80 30.01 30 0    
Jul 12 16:53 S 6 10 Light Rain FEW046 BKN070 OVC090 76 74     94%   78 29.99 29.98 0 0  
Jul 12 16:31 S 7 8 Light Rain FEW070 BKN090 OVC110 76 73     91%   77 29.99   0    
Jul 12 15:53 S 9 9 Light Rain FEW027 BKN080 OVC095 77 72     84%   78 30 29.99 0    
Jul 12 15:48 S 5 9 Light Rain SCT055 BKN075 OVC090 77 73     89%   79 30.01   0    
Jul 12 15:07 S 14 10 Thunderstorms SCT048 89 72     57%   96 29.99        
Jul 12 14:53 Calm 10 Clear CLR 92 73     54%   101 29.98 29.97      
Jul 12 13:53 S 7 10 Clear CLR 90 74     59%   99 30 29.99      
Jul 12 12:53 Calm 10 Mostly Clear FEW032 88 74     63%   97 30.02 30.01      
Jul 12 11:53 SSE 9 10 Mostly Cloudy SCT025 BKN033 BKN046 85 75     72%   93 30.03 30.02      
Jul 12 11:06 S 6 10 Partly Cloudy SCT020 84 76     77%   93 30.03        
Jul 12 10:53 S 9 10 Mostly Cloudy BKN019 84 76     77%   93 30.04 30.03      
Jul 12 10:34 S 7 10 Mostly Cloudy BKN017 83 76     79%   91 30.03        
Jul 12 09:53 SSW 7 10 Partly Cloudy SCT012 81 76     85%   87 30.01 30      
Jul 12 08:53 S 5 10 Clear CLR 77 74     90%   79 30.01 30      
Jul 12 07:53 S 5 10 Partly Cloudy SCT065 75 73     94%   77 30 29.98      
Jul 12 07:34 S 5 10 Partly Cloudy SCT015 74 73     97%   76 29.99        
Jul 12 07:27 Calm 10 Mostly Cloudy BKN015 74 73     97%   76 29.99        
Jul 12 06:53 Calm 10 Clear CLR 73 72     96%   75 29.99 29.98      
Jul 12 05:53 S 5 10 Clear CLR 73 72     96%   75 29.97 29.96      
Jul 12 04:53 S 5 9 Clear CLR 73 73     100%   75 29.97 29.96      
Jul 12 04:06 Calm 10 Partly Cloudy SCT030 74 73     97%   76 29.99        
Jul 12 03:53 Calm 10 Mostly Cloudy BKN029 74 73     97%   76 30 29.98      
Jul 12 03:50 S 3 10 Mostly Cloudy BKN029 73 73     100%   75 30        
Jul 12 02:53 Calm 10 Clear CLR 74 73     97%   76 29.99 29.98      
Jul 12 01:53 S 3 10 Clear CLR 74 73     97%   76 29.99 29.98      
Jul 12 00:53 S 5 10 Clear CLR 74 73     97%   76 30.01 30      
Jul 11 23:53 SSW 5 10 Clear CLR 76 73     91%   77 30 29.99      
Jul 11 22:53 SSE 6 10 Mostly Clear FEW050 76 74     94%   78 30.01 30.01      
Jul 11 21:53 S 5 10 Clear CLR 76 74     94%   78 30 29.99      
Jul 11 20:53 SE 5 6 Fog/Mist CLR 76 75     97%   78 29.98 29.97      
Jul 11 19:53 SE 6 8 Mostly Clear FEW040 77 75     94%   79 29.97 29.96     0
Jul 11 18:53 S 6 9 Clear CLR 78 76     93%   80 29.96 29.94      
Jul 11 17:53 SE 5 8 Clear CLR 76 76     100%   78 29.96 29.95 0    
Jul 11 17:22 WNW 3 8 Light Rain FEW038 SCT090 BKN110 76 75     97%   78 29.96   0    
Jul 11 17:15 Calm 5 Light Rain and Fog/Mist FEW040 SCT090 OVC110 76 75     97%   78 29.97   0    
Jul 11 17:08 Calm 2.5 Light Rain and Fog/Mist FEW021 SCT090 OVC110 76 74     94%   78 29.97   0    
Jul 11 16:53 SW 7 1 Thunderstorms and Heavy Rain and Fog/Mist FEW019 BKN037 OVC110 76 74     94%   78 29.99 29.98 0 0  
Jul 11 16:47 S 9 1.75 Thunderstorms and Heavy Rain and Fog/Mist SCT020 BKN035 OVC050 77 73     89%   79 30   0    
Jul 11 16:44   2.5 Thunderstorms and Rain and Fog/Mist FEW016 BKN024 OVC055 77 74     90%   79     0    
Jul 11 16:38   3 Thunderstorms and Rain and Fog/Mist FEW016 SCT022 BKN038 78 75     90%   80     0    
Jul 11 16:32 S 10 1.25 Thunderstorms and Heavy Rain FEW024 SCT038 BKN050 80 75     85%   85     0    
Jul 11 16:28 S 9 1.75 Rain FEW024 SCT038 BKN050 81 75     82%   87 29.97   0    
Jul 11 16:16 WSW 15 10 Partly Cloudy SCT050 84 74     72%   91 29.95        
Jul 11 16:01 SSW 9 10 Partly Cloudy SCT050 91 72     54%   99 29.95        
Jul 11 15:53 S 7 10 Partly Cloudy SCT050 92 73     54%   101 29.95 29.93      
Jul 11 14:53 SSE 7 10 Mostly Clear FEW060 90 73     58%   98 29.96 29.94      
Jul 11 13:53 SE 8 10 Mostly Cloudy SCT040 BKN050 BKN060 87 73     63%   95 29.99 29.98      
Jul 11 12:53 3 10 Partly Cloudy FEW036 SCT045 SCT065 88 74     63%   97 30.01 29.99      
Jul 11 11:53 S 8 10 Partly Cloudy SCT026 86 75     70%   95 30.02 30.01      
Jul 11 10:53 SSE 10 10 Partly Cloudy SCT026 86 76     72%   96 30.03 30.02      
Jul 11 09:53 SSE 9 10 Clear CLR 84 76     77%   93 30.03 30.02      
Jul 11 08:53 SSE 10 10 Clear CLR 80 76     87%   85 30.03 30.02      
Jul 11 07:53 SE 5 10 Clear CLR 77 75     94%   79   30.02      
Jul 11 06:53 Calm 6 Fog/Mist CLR 73 73     100%   75 30.01 30      
Jul 11 05:53 Calm 9 Clear CLR 74 74     100%   76 30 29.99      
Jul 11 04:53 Calm 9 Clear CLR 74 73     97%   76 29.98 29.97      
Jul 11 02:53 ESE 5 9 Mostly Cloudy FEW028 BKN036 75 74     96%   77 30.02 30.01      
Jul 11 01:53 Calm 10 Clear CLR 75 74     96%   77 30.01 30      
Jul 11 00:53 Calm 10 Clear CLR 77 74     90%   79 30.02 30.01      
Jul 10 23:53 SE 3 10 Clear CLR 78 74     87%   80 30.04 30.03      
Jul 10 22:53 S 5 10 Clear CLR 78 74     87%   80 30.01 30      
Jul 10 21:53 Calm 10 Clear CLR 79 73     82%   82 30.01 30      
Jul 10 20:53 SSW 5 10 Clear CLR 82 73     74%   87 30.01 30      
Jul 10 19:53 SSW 8 10 Clear CLR 84 73     70%   90 30.01 30     0
Jul 10 17:53 SW 8 10 Clear CLR 86 73     65%   93 29.99 29.98      
Jul 10 15:53 SSW 7 10 Cloudy FEW041 BKN080 OVC100 88 72     59%   95 30 29.99      
Jul 10 14:53 E 6 10 Mostly Cloudy SCT038 BKN060 BKN075 83 75     77%   90 30 29.99 0    
Jul 10 13:53 S 10 10 Mostly Clear FEW034 89 76     65%   100 30.01 29.99     0
Jul 10 12:53 S 8 10 Clear   88 75     66%   98 30.01 30      
Jul 10 11:53 S 7 10 Partly Cloudy SCT024 SCT041 85 76     75%   94 30.02 30.01 0    
Jul 10 11:49 SW 6 10 Partly Cloudy SCT024 SCT041 84 75     74%   92 30.02   0    
Jul 10 11:27 S 7 10 Mostly Cloudy BKN024 84 75     74%   92 30.02        
Jul 10 11:14 S 5 10 Partly Cloudy SCT022 SCT027 83 75     77%   90 30.02        
Jul 10 11:06 S 5 10 Mostly Cloudy SCT022 BKN027 84 76     77%   93 30.02        
Jul 10 10:53 S 7 10 Mostly Clear FEW018 84 76     77%   93 30.02 30.01      
Jul 10 09:53 SSE 7 10 Partly Cloudy SCT015 SCT041 80 75     85%   85 30.03 30.02      
Jul 10 09:49 S 8 10 Mostly Cloudy SCT015 BKN041 81 75     84%   86 30.03        
Jul 10 08:53 SSE 3 10 Cloudy OVC012 79 76     90%   83 30.03 30.02      
Jul 10 08:51 SSE 3 10 Cloudy OVC012 79 75     89%   82 30.03        
Jul 10 06:53 SSE 7 8 Cloudy BKN006 OVC011 76 75     97%   78 30 29.99      
Jul 10 06:44 SSE 7 10 Cloudy BKN009 OVC014 76 75     97%   78 30        
Jul 10 05:53 SSE 5 10 Cloudy OVC010 76 75     97%   78 29.97 29.96      
Jul 10 05:16 S 7 9 Cloudy FEW003 OVC010 76 75     97%   78 29.97        
Jul 10 04:53 Calm 7 Cloudy OVC006 76 76     100%   78 29.96 29.95      
Jul 10 04:42 SSE 3 7 Mostly Cloudy BKN005 76 76     100%   78 29.96        
Jul 10 03:53 SE 3 8 Mostly Clear FEW005 76 76     100%   78 29.96 29.95      
Jul 10 03:50 SSE 3 8 Partly Cloudy SCT005 75 75     100%   77 29.96        
Jul 10 03:05 SE 5 8 Mostly Cloudy BKN005 BKN024 76 76     100%   78 29.98        
Jul 10 02:53 SE 5 8 Partly Cloudy SCT004 76 76     100%   78 29.98 29.97      
Jul 10 01:53 SE 6 9 Clear CLR 76 75     97%   78 29.97 29.96      
Jul 10 00:53 S 6 10 Mostly Clear FEW021 77 76     96%   79 29.99 29.98      
Jul 10 00:48 SSE 7 10 Mostly Clear FEW019 FEW027 77 75     94%   79 29.99        
Jul 10 00:31 SSE 6 10 Mostly Cloudy BKN019 77 77     100%   79 29.99        
Jul 09 23:53 Calm 10 Mostly Clear FEW020 77 76     96%   79 29.99 29.98      
Jul 09 22:53 SE 6 8 Clear CLR 77 77     100%   79 29.98 29.97      
Jul 09 21:53 Calm 10 Clear CLR 79 77     94%   83 29.98 29.97      
Jul 09 20:53 SE 5 10 Clear CLR 79 77     94%   83 29.97 29.96      
Jul 09 19:53 Calm 10 Mostly Clear FEW018 79 78     97%   83 29.95 29.94     0
Jul 09 18:53 S 5 10 Clear CLR 80 77     90%   86 29.96 29.95      
Jul 09 17:53 SSE 6 10 Clear CLR 79 78     97%   83 29.96 29.95 0    
Jul 09 17:11 SSE 5 10 Mostly Clear FEW046 FEW110 79 77     94%   83 29.94   0    
Jul 09 16:53 S 6 9 Thunderstorms and Rain SCT048 SCT070 OVC110 78 77     96%   81 29.94 29.93 0 0  
Notice The following observation data may not be complete
Jul 09 16:39 SSE 7 3 Thunderstorms and Rain and Fog/Mist FEW029 BKN080 OVC110   75      %     29.93   0    
Notice The following observation data may not be complete
Jul 09 16:34 ESE 6 1.75 Thunderstorms and Rain and Fog/Mist SCT028 BKN055 OVC110   74      %     29.93   0    
Notice The following observation data may not be complete
Jul 09 16:26 ESE 10 2.5 Thunderstorms and Rain and Fog/Mist SCT029 BKN037 OVC055   75      %         0    
Notice The following observation data may not be complete
Jul 09 16:15   7 Thunderstorms and Rain SCT028 BKN035 OVC070   73      %         0    
Jul 09 16:03   10 Thunderstorms SCT037 BKN047 OVC075 88 76     68%   99 29.94        
Jul 09 15:53   10 Mostly Cloudy FEW039 SCT050 BKN070 92 77     62%   106 29.92 29.91      
Jul 09 15:46 S 10 10 Mostly Cloudy SCT039 SCT050 BKN080 91 77     64%   105 29.91        
Jul 09 14:53 5 10 Mostly Cloudy SCT041 BKN060 91 75     60%   102 29.93 29.92      
Jul 09 13:53 ESE 6 10 Partly Cloudy FEW037 SCT046 89 76     65%   100 29.95 29.94      
Jul 09 12:53 Calm 10 Partly Cloudy SCT030 SCT050 89 77     68%   102 29.97 29.95      
Jul 09 11:02 SE 8 10 Mostly Cloudy SCT017 SCT028 BKN043 85 78     80%   97 29.98        
Jul 09 10:53 E 8 10 Mostly Cloudy BKN017 BKN030 BKN065 85 78     80%   97 29.98 29.97      
Jul 09 10:46 ESE 7 10 Mostly Cloudy BKN017 85 78     80%   97 29.98        
Jul 09 09:53 ESE 6 10 Clear CLR 82 78     88%   91 29.96 29.95      
Jul 09 08:53 E 6 9 Mostly Clear FEW004 79 77     94%   83 29.96 29.94      
Jul 09 08:35 SE 5 7 Partly Cloudy SCT003 78 77     96%   81 29.96        
Jul 09 08:28 SE 6 7 Mostly Cloudy BKN003 77 77     100%   79 29.96        
Jul 09 07:53 Calm 5 Fog/Mist OVC004 76 76     100%   78 29.95 29.94      
Jul 09 07:46 Calm 4 Fog/Mist OVC004 76 76     100%   78 29.95        
Jul 09 07:35 Calm 2 Fog/Mist BKN004 75 75     100%   77 29.95        
Jul 09 07:20 Calm 5 Fog/Mist FEW004 75 75     100%   77 29.95        
Jul 09 06:53 SE 3 5 Fog/Mist CLR 74 74     100%   76 29.94 29.93      
Jul 09 05:53 SE 3 8 Clear CLR 75 74     96%   77 29.93 29.92      
Jul 09 04:53 Calm 8 Clear CLR 75 75     100%   77 29.92 29.91      
Jul 09 03:53 SSE 3 8 Clear CLR 75 75     100%   77 29.91 29.9      
Jul 09 02:53 Calm 10 Clear CLR 76 75     97%   78 29.91 29.9      
Jul 09 01:53 Calm 9 Clear CLR 76 75     97%   78 29.93 29.91     0
Jul 09 00:53 Calm 7 Clear CLR 76 76     100%   78 29.94 29.93      
Jul 08 23:53 Calm 9 Clear CLR 76 76     100%   78 29.94 29.93      
Jul 08 22:53 SSW 3 10 Partly Cloudy SCT100 SCT120 80 75     85%   85 29.94 29.93   0  
Jul 08 21:53 SSE 5 10 Cloudy OVC085 78 78     100%   81 29.94 29.93 0    
Jul 08 20:53 ESE 6 9 Light Rain SCT036 BKN049 OVC070 78 77     96%   81 29.91 29.9 0    
Jul 08 20:30 E 7 4 Rain and Fog/Mist BKN049 BKN060 OVC070 79 76     90%   83 29.91   0    
Jul 08 20:15 ENE 6 10 Cloudy OVC047 80 77     90%   86 29.91        
Jul 08 19:53 W 8 10 Cloudy BKN046 BKN060 OVC095 85 73     68%   92 29.9 29.89 0   0
Jul 08 18:53 SW 10 10 Cloudy BKN050 OVC080 87 73     63%   95 29.87 29.86      
Jul 08 17:53 SSE 7 10 Partly Cloudy SCT055 89 73     59%   97 29.87 29.86      
Jul 08 16:53 S 5 10 Partly Cloudy SCT060 91 71     52%   98 29.88 29.87      
Jul 08 15:53 Calm 10 Mostly Clear FEW050 92 71     51%   99 29.88 29.87      
Jul 08 14:53 NNW 6 10 Mostly Clear FEW050 93 72     51%   101 29.89 29.88      
Jul 08 13:53 SSW 3 10 Mostly Clear FEW045 90 72     56%   97 29.92 29.91      
Jul 08 12:53 SSW 5 10 Clear CLR 88 73     61%   96 29.95 29.93      
Jul 08 11:53 WSW 6 10 Partly Cloudy SCT030 87 75     68%   97 29.97 29.96      
Jul 08 10:53 W 7 10 Clear CLR 85 74     70%   92 29.96 29.95      
Jul 08 09:53 W 7 10 Clear CLR 83 75     77%   90 29.97 29.96      
Jul 08 08:53 WSW 6 10 Clear CLR 80 75     85%   85 29.96 29.95      
Jul 08 07:53 SSW 3 10 Clear CLR 75 73     94%   77 29.94 29.93      
Jul 08 06:53 S 3 9 Clear CLR 73 73     100%   75 29.93 29.92      
Jul 08 06:39 S 5 8 Clear CLR 73 72     96%   75 29.93        
Jul 08 05:53 SE 3 10 Clear CLR 73 72     96%   75 29.93 29.92      
Jul 08 04:53 S 3 10 Mostly Cloudy BKN085 73 72     96%   75 29.93 29.92      
Jul 08 03:53 Calm 10 Clear CLR 73 72     96%   75 29.93 29.92      
Jul 08 02:53 SSE 3 10 Clear CLR 73 72     96%   75 29.93 29.92      
Jul 08 01:53 Calm 10 Clear CLR 73 72     96%   75 29.95 29.94      
Jul 08 00:53 Calm 10 Clear CLR 73 72     96%   75 29.97 29.96      
Jul 07 23:53 SSE 3 10 Clear CLR 73 71     94%   74 29.98 29.96      
Jul 07 22:53 Calm 10 Clear CLR 74 71     91%   75 29.98 29.96      
Jul 07 21:53 Calm 10 Clear CLR 75 71     88%   76 29.96 29.95      
Jul 07 20:53 SSW 3 10 Clear   76 71     85%   77 29.98 29.97      
Jul 07 19:53 SSE 6 10 Clear CLR 78 74     87%   80 29.99 29.98     0
Jul 07 18:53 SSW 7 10 Clear CLR 80 73     79%   84 29.98 29.97      
Jul 07 17:53 SW 13 10 Clear CLR 83 75     77%   90 29.97 29.96      
Jul 07 16:53 SSW 13 10 Partly Cloudy SCT070 84 74     72%   91   29.97   0  
Jul 07 15:53 SSW 11 10 Partly Cloudy FEW029 SCT039 SCT120 84 77     80%   94 29.97 29.96 0    
Jul 07 15:46 S 13 10 Partly Cloudy FEW014 SCT120 85 78     80%   97 29.97   0    
Jul 07 15:28 SSE 10 7 Light Rain FEW014 FEW090 BKN110 86 78     77%   98 29.98   0    
Jul 07 14:53 SE 5 10 Mostly Clear FEW085 86 76     72%   96 30 29.99      
Jul 07 13:53 6 10 Clear CLR 86 77     75%   97 30.03 30.02 0   0
Jul 07 13:15 Calm 10 Mostly Cloudy SCT025 SCT039 BKN085 84 75     74%   92 30.04   0    
Jul 07 13:07 W 6 10 Light Rain FEW023 BKN028 BKN039 85 76     75%   94 30.04   0    
Jul 07 12:53 S 6 10 Mostly Cloudy SCT023 SCT028 BKN039 84 76     77%   93 30.04 30.03      
Jul 07 12:42 SW 6 10 Partly Cloudy FEW020 SCT028 SCT037 85 76     75%   94 30.05        
Jul 07 12:24 SSE 6 10 Mostly Cloudy SCT022 BKN029 83 76     79%   91 30.05        
Jul 07 11:53 Calm 10 Mostly Clear FEW019 83 75     77%   90 30.05 30.04      
Jul 07 11:49 SSW 6 10 Partly Cloudy FEW020 SCT032 82 75     79%   89 30.05        
Jul 07 11:42 S 5 10 Mostly Cloudy SCT020 BKN026 BKN032 82 75     79%   89 30.05        
Jul 07 11:12 5 10 Mostly Cloudy SCT021 BKN031 82 75     79%   89 30.05        
Jul 07 10:53 S 5 10 Mostly Cloudy SCT022 BKN028 82 75     79%   89 30.04 30.03      
Jul 07 10:49 S 7 10 Mostly Cloudy SCT022 BKN028 82 75     79%   89 30.04        
Jul 07 09:53 WSW 6 10 Clear CLR 82 75     79%   89 30.05 30.04      
Jul 07 08:53 SW 6 10 Clear CLR 77 74     90%   79 30.05 30.04      
Jul 07 08:10 SSW 5 10 Mostly Clear FEW006 75 74     96%   77 30.05        
Jul 07 07:53 SSW 3 10 Clear CLR 75 74     96%   77 30.06 30.05      
Jul 07 06:53 Calm 10 Clear CLR 75 74     96%   77 30.05 30.04      
Jul 07 05:53 SW 3 10 Clear CLR 74 73     97%   76 30.04 30.03      
Jul 07 05:09 Calm 10 Partly Cloudy SCT015 SCT020 74 73     97%   76 30.04        
Jul 07 04:53 Calm 10 Mostly Cloudy SCT016 BKN021 BKN110 74 73     97%   76 30.04 30.03      
Jul 07 03:53 Calm 10 Clear CLR 74 73     97%   76 30.05 30.04      
Jul 07 02:53 SSW 3 10 Mostly Cloudy BKN049 75 73     94%   77 30.05 30.04      
Jul 07 01:53 SW 5 10 Clear CLR 75 73     94%   77 30.07 30.06      
Jul 07 00:53 SSW 3 10 Clear CLR 75 74     96%   77 30.05 30.04      
Jul 06 23:53 SSW 6 10 Clear CLR 76 74     94%   78 30.05 30.04      
Jul 06 22:53 SSE 3 8 Mostly Clear FEW007 76 75     97%   78 30.06 30.04      
Jul 06 22:33 S 5 10 Mostly Clear FEW007 76 75     97%   78 30.06        
Jul 06 21:53 SE 8 10 Clear CLR 76 75     97%   78 30.06 30.05      
Jul 06 20:53 SE 8 10 Partly Cloudy FEW006 SCT120 77 75     94%   79 30.08 30.06      
Jul 06 20:31 SE 7 10 Cloudy SCT028 BKN090 OVC120 77 76     96%   79 30.08        
Jul 06 20:12 SE 11 10 Cloudy BKN027 OVC080 78 76     93%   80 30.08        
Jul 06 19:53 SE 9 10 Cloudy SCT026 OVC080 79 76     90%   83 30.08 30.07 0   0
Jul 06 18:53 SW 3 10 Cloudy FEW031 BKN060 OVC075 83 73     72%   89 30.07 30.06      
Jul 06 17:53 WNW 7 10 Mostly Clear FEW070 84 72     67%   90 30.07 30.06      
Jul 06 15:53 WSW 7 10 Mostly Cloudy BKN120 84 72     67%   90 30.09 30.08      
Jul 06 14:53 W 13 10 Clear CLR 85 71     63%   90 30.08 30.07      
Jul 06 13:53 W 8 10 Partly Cloudy FEW080 SCT095 84 74     72%   91 30.1 30.09 0   0
Jul 06 11:53 5 10 Clear   81 76     85%   87 30.15 30.14 0    
Jul 06 10:53 Calm 10 Mostly Cloudy BKN060 BKN120 79 75     88%   83 30.14 30.14      
Jul 06 09:53 SW 3 10 Clear CLR 78 74     87%   80 30.13 30.12      
Jul 06 08:53 Calm 10 Clear CLR 76 74     94%   78 30.12 30.11      
Jul 06 07:53 SE 3 9 Mostly Clear FEW110 74 73     97%   76 30.11 30.1      
Jul 06 06:53 Calm 8 Mostly Cloudy BKN100 74 74     100%   76 30.11 30.1      
Jul 06 06:39 SE 3 10 Mostly Clear FEW100 74 73     97%   76 30.1        
Jul 06 05:53 Calm 10 Clear CLR 74 73     97%   76 30.09 30.09      
Jul 06 04:53 Calm 9 Cloudy OVC100 74 74     100%   76 30.08 30.07      
Jul 06 03:53 Calm 8 Cloudy OVC090 73 73     100%   75 30.1 30.09      
Jul 06 02:53 Calm 9 Mostly Clear FEW095 73 73     100%   75 30.11 30.1      
Jul 06 01:53 Calm 9 Cloudy OVC090 73 73     100%   75 30.13 30.11     0
Jul 06 00:53 Calm 8 Cloudy OVC080 72 72     100%   74 30.13 30.12      
Jul 05 23:53 SSE 3 10 Clear CLR 73 72     96%   75 30.13 30.12      
Jul 05 22:53 Calm 8 Clear CLR 72 72     100%   74 30.12 30.11   0  
Jul 05 21:53 Calm 10 Clear CLR 73 72     96%   75 30.11 30.1 0    
Jul 05 20:53 Calm 10 Light Rain FEW110 73 72     96%   75 30.12 30.11 0    
Jul 05 19:53 E 3 8 Light Rain OVC100 73 73     100%   75 30.13 30.12 0   0
Jul 05 18:53 NE 5 6 Light Rain and Fog/Mist BKN110 74 73     97%   76 30.13 30.13 0    
Jul 05 17:53 SE 3 5 Light Rain and Fog/Mist BKN110 74 73     97%   76 30.14 30.13 0    
Jul 05 17:41 SE 5 4 Rain and Fog/Mist BKN110 73 73     100%   75 30.15   0    
Jul 05 17:14 ESE 5 4 Thunderstorms and Rain and Fog/Mist BKN110 73 73     100%   75 30.14   0    
Jul 05 16:53 Calm 7 Light Rain BKN120 74 73     97%   76 30.13 30.12 0 0  
Jul 05 16:50 Calm 8 Light Rain BKN120 73 73     100%   75 30.13   0    
Jul 05 16:32 NW 6 8 Light Rain FEW110 74 73     97%   76 30.13   0    
Jul 05 15:53 ENE 6 4 Light Rain and Fog/Mist SCT009 SCT050 BKN110 74 72     94%   75   30.14 0    
Jul 05 15:45 SE 7 5 Light Rain and Fog/Mist BKN009 74 72     94%   75     0    
Jul 05 15:35 SSE 8 10 Thunderstorms and Rain FEW009 FEW045 SCT110 74 73     97%   76     0    
Jul 05 15:17   8 Light Rain FEW026 BKN100 BKN120 74 72     94%   75 30.11   0    
Jul 05 14:53 NW 11 7 Thunderstorms and Rain FEW055 SCT075 BKN100 75 72     90%   76 30.1 30.09 0    
Notice The following observation data may not be complete
Jul 05 14:23 WSW 6 3 Thunderstorms and Rain and Fog/Mist FEW060 SCT070 OVC095   73      %     30.1   0    
Notice The following observation data may not be complete
Jul 05 13:56   1.5 Thunderstorms and Rain and Fog/Mist SCT027 BKN033 OVC070   77      %     30.11   0    
Notice The following observation data may not be complete
Jul 05 13:53 SSW 13 2 Heavy Rain and Fog/Mist SCT028 BKN033 OVC047   78      %     30.11 30.1 0   0
Jul 05 13:28 E 6 10 Mostly Cloudy BKN027 87 78     75%   100 30.11        
Jul 05 13:08 Calm 10 Mostly Cloudy BKN025 87 77     72%   99 30.12        
Jul 05 12:53 5 10 Partly Cloudy SCT022 87 78     75%   100 30.13 30.12      
Jul 05 11:53 SW 3 10 Clear CLR 84 78     82%   95 30.14 30.13      
Jul 05 10:53 SE 6 10 Clear CLR 83 77     82%   92 30.13 30.12      
Jul 05 09:53 SE 6 10 Clear CLR 81 77     88%   88 30.12 30.11      
Jul 05 08:53 ESE 3 9 Clear CLR 78 76     93%   80 30.11 30.1      
Jul 05 07:53 Calm 7 Clear CLR 76 75     97%   78 30.1 30.09      
Jul 05 06:53 ESE 5 5 Fog/Mist CLR 74 74     100%   76 30.08 30.07      
Jul 05 05:53 E 3 8 Clear CLR 74 74     100%   76 30.08 30.07      
Jul 05 04:53 Calm 7 Clear CLR 74 74     100%   76 30.07 30.06      
Jul 05 03:53 Calm 7 Mostly Clear FEW004 FEW040 75 74     96%   77 30.07 30.06      
Jul 05 02:53 Calm 8 Clear CLR 74 74     100%   76 30.07 30.06      
Jul 05 02:07 ESE 7 7 Clear   74 74     100%   76 30.08        
Jul 05 01:53 ESE 7 6 Clear   74 74     100%   76 30.08 30.07      
Jul 05 00:53 Calm 9 Clear CLR 74 74     100%   76 30.09 30.08 0    
Jul 04 23:53 S 5 10 Light Rain FEW095 74 74     100%   76 30.09 30.08 0    
May 15 09:53 SE 7 10 Cloudy BKN009 OVC016 75 71     88%   76 30 29.99 0    
May 15 08:53 SE 11 10 Cloudy BKN007 OVC011 75 71     88%   76 29.99 29.98      
May 15 05:20 SE 7 10 Cloudy BKN010 OVC027 72 69     91%   73 29.95        
May 15 03:53 ESE 9 10 Cloudy SCT008 OVC021 72 68     87%   73 29.95 29.94 0    
May 15 02:51 SE 14 1.75 Heavy Rain and Fog/Mist BKN008 OVC017 72 68     88%   73 29.95   0    
May 14 17:25 NE 10 10 Light Rain SCT011 SCT017 BKN047 75 70     84%   76 29.97   0    
May 14 15:56 ENE 9 6 Light Rain and Fog/Mist FEW008 OVC016 73 69     87%   74 30   0    
May 14 11:53 E 8 10 Mostly Cloudy BKN016 BKN024 BKN032 77 69     77%   78 30.06 30.05      
May 14 07:40 E 5 6 Light Rain and Fog/Mist BKN010 BKN060 OVC095 71 68     90%   72 30.06   0    
May 13 15:53 E 10 10 Clear CLR 85 64     50%   86 30.07 30.07      
May 13 08:53 Calm 10 Clear CLR 74 66     76%   75 30.14 30.13      
May 12 08:53 SE 5 10 Clear CLR 75 66     74%   76 30.15 30.14      
May 11 21:53 SE 3 10 Clear CLR 79 63     58%   79 30.1 30.09      
Jun 12 01:53 Calm 10 Mostly Cloudy SCT003 BKN110 72 71     97%   73 30.14 30.13     0
Jun 11 21:53 Calm 10 Clear   72 70     93%   73 30.14 30.14      
Jun 11 18:49   1.75 Thunderstorms and Heavy Rain and Fog/Mist FEW009 FEW013 OVC022 72 70     94%   73 30.17   0    
Jun 11 17:16   2 Mostly Cloudy BKN027 BKN043 BKN100 76 73     91%   77 30.13   0    
Notice The following observation data may not be complete
Jun 10 18:05   10 Cloudy FEW026 BKN060 OVC100          %              
Jun 10 17:53 E 8 10 Cloudy FEW026 SCT060 OVC100 81 72     74%   85 30.06 30.05      
Jun 09 23:53 E 3 10 Partly Cloudy SCT055 71 65     81%   72 30.02 30.01      
Jun 09 09:53 E 10 10 Mostly Clear FEW080 75 65     71%   76 29.97 29.97      
Jun 08 09:53 N 9 10 Cloudy OVC008 70 67     90%     29.81 29.8      
Jun 07 18:08 N 6 0.25 Heavy Rain and Fog BKN016 OVC120 71 70     96%   72 29.69   1    
Notice The following observation data may not be complete
Jun 07 17:05   10 Cloudy BKN015 BKN042 OVC060          %              
Jun 07 14:53 SSE 3 10 Mostly Cloudy BKN005 74 72     94%   75 29.71 29.7 0    
Jun 07 12:53 E 7 8 Light Rain SCT028 BKN065 OVC095 71 69     93%   72 29.74 29.74 0    
Jun 07 12:21 7 10 Clear   75 73     94%   77 29.76        
Jun 07 11:53 SSE 7 10 Mostly Clear FEW004 75 73     94%   77 29.74 29.73 0    
Jun 07 09:53 E 3 10 Cloudy SCT017 BKN026 OVC070 75 73     94%   77 29.72 29.71 0    
Jun 07 08:53 ESE 6 10 Cloudy BKN016 BKN037 OVC050 71 70     96%   72 29.73 29.72 0    
Jun 06 16:22 WNW 8 1.25 Heavy Rain and Fog/Mist FEW004 BKN022 OVC030 71 70     96%   72 29.79   0    
Jun 06 15:36 NNE 5 0.75 Heavy Rain and Fog/Mist SCT004 BKN019 OVC036 72 70     93%   73 29.77   0    
Jun 06 15:19 E 5 10 Light Rain SCT003 BKN036 OVC050 72 70     93%   73 29.77   0    
Jun 06 12:32   1 Thunderstorms and Heavy Rain and Fog/Mist SCT009 BKN016 OVC040 72 71     97%   73 29.81   1    
Notice The following observation data may not be complete
Jun 06 12:18   1.75 Heavy Rain and Fog/Mist FEW006 BKN020 OVC035          %         0